Airfield :
LOGIN :

Register | Disclaimer

   EN    FR    IT 

 










Legend :    VFR   Marginal VFR   IFR   Intensive IFR   Very Intensive IFR
Visi :
Ceiling :
>= 8 km
>= 3000ft
5 to 8 km
1000 to 3000 ft
1500m to 5 km
500 to 1000 ft
800 to 1500m
200 to 500 ft
< 800m
< 200 ft
Symbols :   Thunderstorms  Fog  Heavy snow  Heavy precipitations  Wind > 20 kt
SIGMETs :     Misc.  Thunderstorms  Icing  Turbulence  Mountain Waves  Volcanic Ashes






- Airport Elevation : 181 ft


ESIB - Satenas AB

CURRENT METAR :
  • 272120Z AUTO 22001KT 9999 SCT072/// BKN098/// M08/M08 Q0999

EXPIRED METARs :
  • 272050Z 13003KT CAVOK M07/M07 Q0999
  • 272020Z 12001KT CAVOK M05/M05 Q0999
  • 271950Z 10003KT CAVOK M05/M06 Q0999
  • 271920Z 11003KT CAVOK M04/M05 Q0998
  • 271850Z 09002KT CAVOK M04/M05 Q0998

Expired Forecast.



MET'MAP, your aeronautical weather chart ! - Copyright ORBIFLY December 2007 - Disclaimer

ORBIFLY MET'MAP TEAM :

Programming & Development : Alexandra Zaïnal
Concept & original design : Baudouin d'Aumeries
Assistance for programming : Marc-Olivier Méhu
Technical & hardware support : Manuel Goepfert

Contact : metmap@orbifly.com




SOURCES & CREDITS :

   NOAA